Watertown, SD

11:51 AM CDT on August 20, 2014 (GMT -0500)
Watertown Municipal | Change Station
CLOSE
Current Station
Airport
Location: Watertown,
Elevation: 1749 ft
Nearby Weather Stations

Elev 1749 ft 44.90 °N, 97.15 °W | Updated 58 minutes ago

Clear
Clear
76 °F
Feels Like 76 °F
N
9
Wind Variable Wind from SSE

Today
High -- | Low -- °F
--% Chance of Precip.
Yesterday
High -- | Low -- °F
Precip. -- in
6:36 AM 8:26 PM
Waning Crescent, 20% visible
Pressure 29.79 in
Visibility 10.0 miles
Clouds Clear
Dew Point 65 °F
Humidity 69%
Rainfall 0.00 in
Snow Depth Not available.
UV 6 out of 12
Pollen 9.90 out of 12
Air Quality Not available.
Flu Activity Not available.
METAR KATY 201553Z AUTO 16008KT 10SM CLR 24/18 A2982 RMK AO2 SLP087 T02440183

More Conditions Fewer Conditions

Pressure 29.79 in
Visibility 10.0 miles
Clouds Clear
Dew Point 65 °F
Humidity 69%
Rainfall 0.00 in
Snow Depth Not available.
UV 6 out of 12
Pollen 9.90 out of 12
Air Quality Not available.
Flu Activity Not available.
METAR KATY 201553Z AUTO 16008KT 10SM CLR 24/18 A2982 RMK AO2 SLP087 T02440183

More Conditions Fewer Conditions

10-Day Weather Forecast

Almanac

Astronomy

Aug. 20, 2014 Rise Set
Actual Time 6:36 AM CDT 8:26 PM CDT
Civil Twilight 6:05 AM CDT 8:57 PM CDT
Nautical Twilight 5:26 AM CDT 9:35 PM CDT
Astronomical Twilight 4:44 AM CDT 10:17 PM CDT
Moon 2:12 AM CDT 5:16 PM CDT
Length of Visible Light 14h 52m
Length of Day
13h 49m
Tomorrow will be 2m 52s shorter.
Waning Crescent, 20% of the Moon is Illuminated
Today
Waning Crescent
Aug 25
New
Sep 2
First Quarter
Sep 8
Full
Sep 15
Last Quarter

Today's Extremes

State Highs State Lows

Community

WunderPhotos

Upload Photos

1,745,691 photos uploaded!

WunderBlogs® & News

Nearby

Snow Depth

Station Depth Elevation
North Rapid Creek 0 in 6130 ft
Blind Park 0 in 6890 ft

Earthquake Activity

City Distance Mag. Time & Date
No recent earthquake activity has been reported nearby.
Minimum magnitude displayed is 2.5.

Coastal Water Temperatures

Place Temperature
No Stations Reporting

Nearby Weather Stations